This demonstration page uses our WeatherBlox Daily Observations layout. Learn more.

Left ArrowRight Arrow

39.29038, -76.61219

Hourly Observations for November 3, 2016

Temp ( °F °C ) Dew Point ( °F °C ) Humidity (%) Winds ( mph kmh ) Pressure ( in mb ) Visibility ( mi km ) Precip ( " mm )
12:54 am 00:54 undefined 59 15 55 12.8 87 87 undefined N/A 30.13 1020 N/A 0.00 0.00
1:54 am 01:54 undefined 59 15 56 13.3 90 90 undefined N/A 30.12 1020 N/A 0.00 0.00
2:54 am 02:54 undefined 59 15 56 13.3 90 90 undefined N/A 30.11 1020 N/A 0.00 0.00
3:54 am 03:54 undefined 59 15 55 12.8 87 87 undefined N/A 30.10 1019 N/A 0.00 0.00
4:54 am 04:54 undefined 58 14.4 54 12.2 87 87 undefined N/A 30.07 1018 N/A 0.00 0.00
5:54 am 05:54 undefined 57 13.9 54 12.2 90 90 undefined N/A 30.06 1018 N/A 0.00 0.00
6:54 am 06:54 undefined 58 14.4 54 12.2 87 87 undefined N/A 30.04 1017 N/A 0.00 0.00
7:54 am 07:54 undefined 60 15.6 55 12.8 84 84 undefined N/A 30.04 1017 N/A 0.00 0.00
8:54 am 08:54 undefined 62 16.7 56 13.3 80 80 undefined N/A 30.04 1017 N/A 0.00 0.00
9:54 am 09:54 undefined 67 19.4 58 14.4 73 73 undefined N/A 30.03 1017 N/A 0.00 0.00
10:54 am 10:54 undefined 70 21.1 59 15 68 68 undefined N/A 30.01 1016 N/A 0.00 0.00
11:54 am 11:54 undefined 75 23.9 56 13.3 52 52 undefined N/A 29.99 1016 N/A 0.00 0.00
12:54 pm 12:54 undefined 77 25 55 12.8 47 47 undefined N/A 29.97 1015 N/A 0.00 0.00
1:54 pm 13:54 undefined 72 22.2 60 15.6 66 66 undefined N/A 29.96 1015 N/A 0.00 0.00
2:54 pm 14:54 undefined 74 23.3 58 14.4 57 57 undefined N/A 29.93 1014 N/A 0.00 0.00
3:54 pm 15:54 undefined 75 23.9 58 14.4 55 55 undefined N/A 29.93 1014 N/A 0.00 0.00
4:54 pm 16:54 undefined 74 23.3 57 13.9 56 56 undefined N/A 29.93 1014 N/A 0.00 0.00
5:54 pm 17:54 undefined 73 22.8 57 13.9 57 57 undefined N/A 29.94 1014 N/A 0.00 0.00
6:54 pm 18:54 undefined 72 22.2 56 13.3 57 57 undefined N/A 29.95 1014 N/A 0.00 0.00
7:54 pm 19:54 undefined 72 22.2 57 13.9 59 59 undefined N/A 29.96 1015 N/A 0.00 0.00
8:54 pm 20:54 undefined 69 20.6 58 14.4 68 68 undefined N/A 29.98 1015 N/A 0.00 0.00
9:54 pm 21:54 undefined 67 19.4 51 10.6 57 57 undefined N/A 30.00 1016 N/A 0.00 0.00
10:54 pm 22:54 undefined 65 18.3 48 8.9 54 54 undefined N/A 30.01 1016 N/A 0.00 0.00
11:54 pm 23:54 undefined 63 17.2 48 8.9 58 58 undefined N/A 30.01 1016 N/A 0.00 0.00

Powered by AerisWeather